Location: Newark
(47.5783°N, 6.7622°E)
Time: 21:22:11
(UTC+00:00)

Vanguard 2 - All Passes

Search period start: 25 February 2020 00:00
Search period end: 06 March 2020 00:00
Orbit: 552 x 2939 km, 32.9° (Epoch: 25 February)

Date Brightness Start Highest point End Pass type
(mag) Time Alt. Az. Time Alt. Az. Time Alt. Az.
25 Feb - 01:17:25 10° SSW 01:24:57 30° SSE 01:36:00 10° ESE visible
25 Feb - 03:23:53 10° WSW 03:33:57 42° S 03:48:34 10° ESE visible
25 Feb - 05:32:22 10° WSW 05:44:08 36° SSW 05:59:06 10° SE visible
25 Feb - 07:43:59 10° WSW 07:54:09 20° SW 08:05:11 10° S daylight
25 Feb - 23:31:08 10° SSE 23:34:57 14° SE 23:39:36 10° ESE visible
26 Feb - 01:34:37 10° SW 01:42:22 34° SSE 01:54:00 10° ESE visible
26 Feb - 03:41:31 10° WSW 03:51:36 41° S 04:06:08 10° ESE visible
26 Feb - 05:50:26 10° WSW 06:01:45 32° SSW 06:15:54 10° SSE visible
26 Feb - 08:03:50 10° WSW 08:11:30 15° SW 08:19:40 10° SSW daylight
26 Feb - 23:47:13 10° S 23:52:06 18° SE 23:58:34 10° ESE visible
27 Feb - 01:51:59 10° SW 01:59:53 36° SSE 02:11:53 10° ESE visible
27 Feb - 03:59:16 10° WSW 04:09:16 39° S 04:23:33 10° SE visible
27 Feb - 06:08:42 10° WSW 06:19:19 27° SSW 06:32:18 10° SSE daylight
28 Feb - 00:03:54 10° SSW 00:09:22 22° SSE 00:16:59 10° ESE visible
28 Feb - 02:09:27 10° SW 02:17:27 37° S 02:29:39 10° ESE visible
28 Feb - 04:17:06 10° WSW 04:26:57 35° SSW 04:40:45 10° SE visible
28 Feb - 06:27:21 10° WSW 06:36:52 22° SSW 06:48:10 10° S daylight
29 Feb - 00:20:55 10° SSW 00:26:43 26° SSE 00:35:08 10° ESE visible
29 Feb - 02:27:02 10° WSW 02:35:04 37° S 02:47:18 10° ESE visible
29 Feb - 04:35:05 10° WSW 04:44:37 31° SSW 04:57:41 10° SE visible
29 Feb - 06:46:41 10° WSW 06:54:23 16° SW 07:03:10 10° S daylight
29 Feb - 22:35:51 10° SSE 22:37:06 11° SE 22:38:27 10° SE night (unlit)
01 Mar - 00:38:08 10° SW 00:44:09 29° SSE 00:53:06 10° ESE visible
01 Mar - 02:44:43 10° WSW 02:52:44 35° S 03:04:47 10° SE visible
01 Mar - 04:53:14 10° WSW 05:02:17 26° SSW 05:14:16 10° SSE visible
01 Mar - 07:08:02 10° SW 07:11:52 11° SW 07:15:56 10° SSW daylight
01 Mar - 22:51:10 10° S 22:54:19 14° SE 22:58:10 10° ESE night (unlit)
02 Mar - 00:55:31 10° SW 01:01:41 30° SSE 01:10:56 10° ESE visible
02 Mar - 03:02:30 10° WSW 03:10:24 32° S 03:22:06 10° SE visible
02 Mar - 05:11:43 10° WSW 05:19:55 21° SSW 05:30:20 10° SSE visible
02 Mar - 23:07:45 10° SSW 23:11:37 18° SSE 23:16:41 10° ESE night (unlit)
03 Mar - 01:13:02 10° SW 01:19:15 31° S 01:28:38 10° ESE visible
03 Mar - 03:20:24 10° WSW 03:28:06 29° SSW 03:39:08 10° SE visible
03 Mar - 05:30:49 10° WSW 05:37:33 16° SSW 05:45:39 10° S visible
03 Mar - 23:24:45 10° SSW 23:29:01 21° SSE 23:34:50 10° ESE night (unlit)
04 Mar - 01:30:40 10° WSW 01:36:53 30° S 01:46:12 10° SE visible
04 Mar - 03:38:30 10° WSW 03:45:47 24° SSW 03:55:52 10° SSE visible
04 Mar - 05:51:34 10° SW 05:55:10 11° SSW 05:59:04 10° SSW daylight
04 Mar - 23:42:00 10° SW 23:46:30 23° SSE 23:52:46 10° ESE night (unlit)
05 Mar - 01:48:24 10° WSW 01:54:32 28° S 02:03:35 10° SE visible
05 Mar - 03:56:55 10° WSW 04:03:29 20° SSW 04:12:07 10° SSE visible
05 Mar - 21:55:55 10° SSE 21:56:53 10° SSE 21:57:56 10° SE night (unlit)
